Nuiqsut, AK

9:08 AM AKDT on October 19, 2017 (GMT -0800)
Nuiqsut

Weather History for PAQT - August, 2013

Change the Weather History Date:

Thursday, August 22, 2013

  Actual Average (PAKU) Record (PAKU)
Temperature  
Mean Temperature 34 °F -  
Max Temperature 41 °F 43 °F 65 °F (1989)
Min Temperature 28 °F 34 °F 28 °F (1986)
Degree Days  
Heating Degree Days 30    
Moisture  
Dew Point 33 °F    
Average Humidity 92    
Maximum Humidity 100    
Minimum Humidity 73    
Precipitation  
Precipitation 0.00 in - - ()
Sea Level Pressure  
Sea Level Pressure 29.79 in    
Wind  
Wind Speed 6 mph (WNW)    
Max Wind Speed 9 mph    
Max Gust Speed -    
Visibility 7 miles    
Events Rain    
Averages and records for this station are not official NWS values.
T = Trace of Precipitation, MM = Missing Value Source: NWS Daily Summary

Daily Weather History Graph

Daily Weather History Graph

Search for Another Location

Airport or City:

Trip Planner

Search our weather history database for the weather conditions in past years. The results will help you decide how hot, cold, wet, or windy it might be!

Date:

Astronomy

Aug. 22, 2013 Rise Set
Actual Time 5:35 AM AKDT 10:34 PM AKDT
Civil Twilight 3:56 AM AKDT 12:09 AM AKDT
Nautical Twilight Sun does not rise Sun does not rise
Astronomical Twilight Sun does not rise Sun does not rise
Moon 9:21 PM AKDT (8/22) 9:23 AM AKDT (8/22)
Length of Visible Light 20h 12m
Length of Day
16h 59m
Waning Gibbous, 96% of the Moon is Illuminated
Aug 22
Waning Gibbous
Aug 28
Last Quarter
Sep 5
New
Sep 12
First Quarter
Sep 19
Full

Hourly Weather History & Observations

Time (AKDT) Temp. Windchill Dew Point Humidity Pressure Visibility Wind Dir Wind Speed Gust Speed Precip Events Conditions
12:53 AM 30.0 °F 26.5 °F 28.9 °F 96% 29.81 in 10.0 mi NNW 3.5 mph - N/A   Clear
2:23 AM 28.4 °F 24.6 °F 28.4 °F 100% 29.81 in 10.0 mi WNW 3.5 mph - N/A   Mostly Cloudy
2:53 AM 28.9 °F 23.9 °F 28.0 °F 96% 29.81 in 10.0 mi West 4.6 mph - N/A   Overcast
3:53 AM 30.9 °F 25.2 °F 28.9 °F 92% 29.81 in 10.0 mi WNW 5.8 mph - N/A   Overcast
4:53 AM 32.0 °F 26.4 °F 30.0 °F 92% 29.81 in 10.0 mi West 5.8 mph - N/A   Overcast
5:53 AM 30.9 °F 23.5 °F 30.0 °F 96% 29.81 in 10.0 mi NW 8.1 mph - N/A   Overcast
6:53 AM 30.9 °F 25.2 °F 30.9 °F 100% 29.80 in 10.0 mi West 5.8 mph - N/A   Overcast
7:26 AM 30.2 °F 23.4 °F 30.2 °F 100% 29.80 in 2.5 mi West 6.9 mph - N/A   Overcast
7:35 AM 30.2 °F 23.4 °F 30.2 °F 100% 29.80 in 1.5 mi West 6.9 mph - N/A   Overcast
7:53 AM 30.9 °F 24.3 °F 30.9 °F 100% 29.80 in 1.5 mi West 6.9 mph - N/A   Overcast
8:02 AM 30.2 °F 22.6 °F 30.2 °F 100% 29.80 in 1.2 mi West 8.1 mph - N/A   Overcast
8:13 AM 32.0 °F 24.8 °F 32.0 °F 100% 29.79 in 0.8 mi West 8.1 mph - N/A   Overcast
8:18 AM 30.2 °F 23.4 °F 30.2 °F 100% 29.80 in 3.0 mi West 6.9 mph - N/A   Overcast
8:45 AM 32.0 °F 26.4 °F 32.0 °F 100% 29.80 in 10.0 mi West 5.8 mph - N/A   Mostly Cloudy
8:53 AM 32.0 °F 26.4 °F 30.9 °F 96% 29.79 in 10.0 mi West 5.8 mph - N/A   Overcast
9:13 AM 33.8 °F 27.7 °F 32.0 °F 93% 29.79 in 9.0 mi West 6.9 mph - N/A   Overcast
9:24 AM 33.8 °F 28.6 °F 32.0 °F 93% 29.79 in 3.0 mi WNW 5.8 mph - N/A   Overcast
9:38 AM 33.8 °F 27.7 °F 32.0 °F 93% 29.79 in 3.0 mi West 6.9 mph - N/A   Overcast
9:46 AM 33.8 °F 27.7 °F 33.8 °F 100% 29.79 in 5.0 mi WSW 6.9 mph - N/A   Overcast
9:53 AM 34.0 °F 28.0 °F 33.1 °F 96% 29.80 in 4.0 mi West 6.9 mph - N/A   Overcast
10:26 AM 35.6 °F 31.7 °F 33.8 °F 93% 29.79 in 2.5 mi West 4.6 mph - 0.00 in Rain Light Rain
10:33 AM 35.6 °F 29.9 °F 33.8 °F 93% 29.79 in 8.0 mi West 6.9 mph - 0.00 in   Overcast
10:39 AM 35.6 °F 30.7 °F 33.8 °F 93% 29.79 in 2.5 mi West 5.8 mph - 0.00 in Rain Light Rain
10:42 AM 35.6 °F 31.7 °F 33.8 °F 93% 29.79 in 1.5 mi WNW 4.6 mph - 0.00 in Rain Light Rain
10:53 AM 35.1 °F 28.6 °F 33.1 °F 92% 29.80 in 3.0 mi NW 8.1 mph - 0.00 in Rain Light Rain
11:11 AM 35.6 °F 29.9 °F 33.8 °F 93% 29.79 in 4.0 mi WNW 6.9 mph - 0.00 in   Overcast
11:22 AM 35.6 °F 29.2 °F 33.8 °F 93% 29.79 in 3.0 mi WNW 8.1 mph - 0.00 in   Overcast
11:29 AM 35.6 °F 29.2 °F 33.8 °F 93% 29.79 in 2.5 mi WNW 8.1 mph - 0.00 in   Overcast
11:37 AM 35.6 °F 29.9 °F 33.8 °F 93% 29.80 in 10.0 mi West 6.9 mph - 0.00 in   Overcast
11:51 AM 35.6 °F 29.9 °F 33.8 °F 93% 29.80 in 1.8 mi West 6.9 mph - 0.00 in   Overcast
11:53 AM 35.1 °F 31.0 °F 35.1 °F 100% 29.80 in 1.8 mi West 4.6 mph - 0.00 in   Overcast
11:59 AM 35.6 °F 29.9 °F 35.6 °F 100% 29.80 in 3.0 mi West 6.9 mph - N/A   Overcast
12:08 PM 35.6 °F 29.2 °F 33.8 °F 93% 29.80 in 2.5 mi West 8.1 mph - 0.00 in   Overcast
12:22 PM 35.6 °F 29.2 °F 33.8 °F 93% 29.80 in 10.0 mi West 8.1 mph - 0.00 in   Overcast
12:53 PM 36.0 °F 29.0 °F 35.1 °F 97% 29.80 in 5.0 mi WNW 9.2 mph - 0.00 in   Overcast
1:07 PM 37.4 °F 32.1 °F 33.8 °F 87% 29.79 in 10.0 mi West 6.9 mph - N/A   Overcast
1:53 PM 37.0 °F 33.3 °F 33.1 °F 86% 29.80 in 10.0 mi WNW 4.6 mph - N/A   Overcast
2:53 PM 37.9 °F 32.7 °F 33.1 °F 83% 29.80 in 10.0 mi WNW 6.9 mph - N/A   Overcast
3:05 PM 39.2 °F 35.0 °F 32.0 °F 75% 29.79 in 10.0 mi West 5.8 mph - N/A   Overcast
3:53 PM 39.9 °F 35.1 °F 33.1 °F 77% 29.80 in 10.0 mi Variable 6.9 mph - N/A   Overcast
4:46 PM 39.2 °F 35.9 °F 33.8 °F 81% 29.79 in 10.0 mi NNW 4.6 mph - N/A   Overcast
4:53 PM 39.9 °F 35.8 °F 34.0 °F 79% 29.79 in 10.0 mi WNW 5.8 mph - N/A   Overcast
5:53 PM 41.0 °F 37.1 °F 33.1 °F 73% 29.79 in 10.0 mi North 5.8 mph - N/A   Overcast
6:53 PM 39.0 °F 34.0 °F 34.0 °F 82% 29.78 in 10.0 mi NNW 6.9 mph - N/A   Overcast
7:43 PM 37.4 °F 32.1 °F 33.8 °F 87% 29.78 in 10.0 mi North 6.9 mph - N/A   Overcast
7:53 PM 37.9 °F 33.5 °F 35.1 °F 89% 29.78 in 10.0 mi North 5.8 mph - N/A   Overcast
8:26 PM 37.4 °F 32.8 °F 35.6 °F 93% 29.77 in 10.0 mi NNE 5.8 mph - N/A   Overcast
8:53 PM 37.0 °F 32.4 °F 35.1 °F 93% 29.78 in 10.0 mi NNE 5.8 mph - N/A   Overcast
9:40 PM 37.4 °F 33.8 °F 35.6 °F 93% 29.78 in 10.0 mi North 4.6 mph - N/A   Overcast
9:53 PM 37.0 °F 32.4 °F 34.0 °F 89% 29.78 in 10.0 mi North 5.8 mph - N/A   Overcast
10:14 PM 37.4 °F 33.8 °F 33.8 °F 87% 29.78 in 10.0 mi North 4.6 mph - 0.00 in Rain Light Rain
10:53 PM 36.0 °F 33.3 °F 34.0 °F 93% 29.78 in 10.0 mi NNW 3.5 mph - 0.00 in   Overcast
11:53 PM 36.0 °F 33.3 °F 34.0 °F 93% 29.78 in 10.0 mi NNW 3.5 mph - N/A   Overcast